Weather History for KCRQ - January, 2014

Change the Weather History Date:

Sunday, January 26, 2014

  Actual Average Record
Temperature  
Mean Temperature 57 °F -  
Max Temperature 63 °F 61 °F 81 °F (2003)
Min Temperature 51 °F 46 °F 42 °F (2001)
Degree Days  
Heating Degree Days 8    
Growing Degree Days 7 (Base 50)    
Moisture  
Dew Point 49 °F    
Average Humidity 74    
Maximum Humidity 100    
Minimum Humidity 59    
Precipitation  
Precipitation 0.00 in - - ()
Sea Level Pressure  
Sea Level Pressure 30.08 in    
Wind  
Wind Speed 2 mph (SSW)    
Max Wind Speed 7 mph    
Max Gust Speed -    
Visibility 9 miles    
Events Fog    
Averages and records for this station are not official NWS values.
T = Trace of Precipitation, MM = Missing Value Source: NWS Daily Summary

Daily Weather History Graph

Daily Weather History Graph

Search for Another Location

Airport or City:

Trip Planner

Search our weather history database for the weather conditions in past years. The results will help you decide how hot, cold, wet, or windy it might be!

Date:

Astronomy

Jan. 26, 2014 Rise Set
Actual Time 6:48 AM PST 5:15 PM PST
Civil Twilight 6:21 AM PST 5:41 PM PST
Nautical Twilight 5:52 AM PST 6:11 PM PST
Astronomical Twilight 5:22 AM PST 6:41 PM PST
Moon 2:29 AM PST (1/26) 1:10 PM PST (1/26)
Length of Visible Light 11h 19m
Length of Day
10h 27m
Waning Crescent, 23% of the Moon is Illuminated
Jan 26
Waning Crescent
Jan 30
New
Feb 6
First Quarter
Feb 14
Full
Feb 22
Last Quarter

Hourly Weather History & Observations

Time (PST) Temp. Dew Point Humidity Pressure Visibility Wind Dir Wind Speed Gust Speed Precip Events Conditions
12:11 AM 53.6 °F 51.8 °F 94% 30.14 in 0.2 mi ESE 3.5 mph - N/A Fog Fog
12:16 AM 51.8 °F 51.8 °F 100% 30.14 in 1.0 mi Calm Calm - N/A   Mist
12:21 AM 51.8 °F 51.8 °F 100% 30.14 in 4.0 mi Calm Calm - N/A   Scattered Clouds
12:53 AM 53.1 °F 46.9 °F 80% 30.12 in 10.0 mi Calm Calm - N/A   Clear
1:53 AM 53.1 °F 42.1 °F 66% 30.11 in 10.0 mi Calm Calm - N/A   Clear
2:53 AM 53.1 °F 42.1 °F 66% 30.10 in 10.0 mi Calm Calm - N/A   Clear
3:53 AM 53.1 °F 43.0 °F 69% 30.10 in 10.0 mi Calm Calm - N/A   Clear
4:53 AM 53.1 °F 42.1 °F 66% 30.10 in 10.0 mi ENE 3.5 mph - N/A   Clear
5:53 AM 53.1 °F 42.1 °F 66% 30.10 in 10.0 mi East 3.5 mph - N/A   Clear
6:53 AM 53.1 °F 42.1 °F 66% 30.12 in 10.0 mi East 3.5 mph - N/A   Clear
7:53 AM 57.0 °F 43.0 °F 59% 30.12 in 10.0 mi Calm Calm - N/A   Clear
8:53 AM 59.0 °F 45.0 °F 60% 30.12 in 10.0 mi Calm Calm - N/A   Clear
9:53 AM 62.1 °F 48.0 °F 60% 30.14 in 9.0 mi WSW 6.9 mph - N/A   Clear
10:53 AM 63.0 °F 48.9 °F 60% 30.12 in 10.0 mi Calm Calm - N/A   Clear
11:53 AM 62.1 °F 48.9 °F 62% 30.09 in 10.0 mi West 5.8 mph - N/A   Mostly Cloudy
12:53 PM 62.1 °F 51.1 °F 67% 30.06 in 10.0 mi WSW 5.8 mph - N/A   Clear
1:53 PM 63.0 °F 52.0 °F 67% 30.04 in 10.0 mi Calm Calm - N/A   Partly Cloudy
2:53 PM 62.1 °F 52.0 °F 70% 30.03 in 10.0 mi WSW 6.9 mph - N/A   Overcast
3:53 PM 60.1 °F 52.0 °F 75% 30.02 in 10.0 mi Calm Calm - N/A   Overcast
4:53 PM 62.1 °F 48.9 °F 62% 30.01 in 10.0 mi Calm Calm - N/A   Overcast
5:53 PM 60.1 °F 54.0 °F 80% 30.03 in 9.0 mi WSW 5.8 mph - N/A   Overcast
6:53 PM 60.1 °F 55.0 °F 83% 30.04 in 8.0 mi Calm Calm - N/A   Overcast
7:53 PM 60.1 °F 52.0 °F 75% 30.03 in 10.0 mi Calm Calm - N/A   Overcast
8:53 PM 60.1 °F 53.1 °F 78% 30.04 in 10.0 mi Calm Calm - N/A   Overcast
9:53 PM 60.1 °F 54.0 °F 80% 30.05 in 10.0 mi Calm Calm - N/A   Overcast
10:53 PM 59.0 °F 55.0 °F 87% 30.06 in 8.0 mi Calm Calm - N/A   Overcast
11:12 PM 59.0 °F 55.4 °F 88% 30.06 in 7.0 mi Calm Calm - N/A   Overcast
11:53 PM 59.0 °F 55.9 °F 90% 30.07 in 8.0 mi Variable 3.5 mph - N/A   Overcast